Springfield, MO

10:52 AM CST on December 10, 2019 (GMT -0600)
Springfield-Branson Regional

Weather History for KSGF - October, 2019

Change the Weather History Date:

Monday, October 28, 2019

  Actual Average Record
Temperature  
Mean Temperature 52 °F 54 °F  
Max Temperature 62 °F 65 °F 85 °F (1950)
Min Temperature 41 °F 43 °F 19 °F (1925)
Degree Days  
Heating Degree Days 13 11  
Month to date heating degree days 247 216  
Since 1 July heating degree days 247 271  
Cooling Degree Days 0 0  
Month to date cooling degree days 37 27  
Year to date cooling degree days 1687 1386  
Growing Degree Days 3 (Base 50)    
Moisture  
Dew Point 47 °F    
Average Humidity 84    
Maximum Humidity 96    
Minimum Humidity 72    
Precipitation  
Precipitation 0.07 in 0.12 in 1.12 in (1929)
Month to date precipitation 6.70 3.24  
Year to date precipitation 48.39 37.96  
Snow  
Snow 0.00 in - - ()
Month to date snowfall 0.0  
Since 1 July snowfall 0.0  
Since 1 September snowfall 0.0  
Snow Depth 0.00 in    
Sea Level Pressure  
Sea Level Pressure 30.01 in    
Wind  
Wind Speed 8 mph (NNW)    
Max Wind Speed 21 mph    
Max Gust Speed 28 mph    
Visibility 7 miles    
Events Rain    
T = Trace of Precipitation, MM = Missing Value Source: NWS Daily Summary

Daily Weather History Graph

Daily Weather History Graph

Search for Another Location

Airport or City:

Astronomy

Oct. 28, 2019 Rise Set
Actual Time 7:33 AM CDT 6:20 PM CDT
Civil Twilight 7:07 AM CDT 6:47 PM CDT
Nautical Twilight 6:36 AM CDT 7:17 PM CDT
Astronomical Twilight 6:06 AM CDT 7:47 PM CDT
Moon 7:56 AM CDT (10/28) 7:06 PM CDT (10/28)
Length of Visible Light 11h 40m
Length of Day
10h 46m
New Moon, 0% of the Moon is Illuminated
Oct 28
New Moon
Nov 4
First Quarter
Nov 12
Full
Nov 19
Last Quarter
Nov 26
New

Hourly Weather History & Observations

Time (CDT) Temp. Windchill Dew Point Humidity Pressure Visibility Wind Dir Wind Speed Gust Speed Precip Events Conditions
12:52 AM 52.0 °F - 48.9 °F 89% 29.98 in 10.0 mi SSE 9.2 mph - N/A   Clear
1:21 AM 51.1 °F - 48.9 °F 92% 30.01 in 10.0 mi WNW 5.8 mph - N/A   Partly Cloudy
1:33 AM 52.0 °F - 48.9 °F 89% 30.01 in 10.0 mi West 3.5 mph - N/A   Mostly Cloudy
1:52 AM 52.0 °F - 50.0 °F 93% 30.00 in 10.0 mi South 4.6 mph - N/A   Overcast
2:52 AM 52.0 °F - 48.9 °F 89% 30.01 in 10.0 mi NW 5.8 mph - N/A   Overcast
3:52 AM 50.0 °F - 46.9 °F 89% 30.01 in 10.0 mi NW 3.5 mph - N/A   Overcast
4:24 AM 50.0 °F - 46.9 °F 89% 30.02 in 10.0 mi NW 3.5 mph - N/A   Overcast
4:47 AM 48.2 °F - 46.4 °F 93% 30.03 in 9.0 mi NW 5.8 mph - N/A   Overcast
4:52 AM 48.9 °F - 46.0 °F 90% 30.02 in 9.0 mi NNW 5.8 mph - N/A   Overcast
5:15 AM 48.9 °F - 46.0 °F 90% 30.03 in 9.0 mi NW 6.9 mph - N/A   Overcast
5:52 AM 48.0 °F - 44.1 °F 86% 30.04 in 10.0 mi North 6.9 mph - N/A   Overcast
6:52 AM 46.0 °F 41.0 °F 43.0 °F 89% 30.05 in 10.0 mi NNW 10.4 mph - N/A   Overcast
7:52 AM 46.0 °F 41.9 °F 42.1 °F 86% 30.06 in 8.0 mi North 8.1 mph - N/A   Overcast
8:52 AM 46.0 °F 43.1 °F 43.0 °F 89% 30.06 in 6.0 mi North 5.8 mph - N/A   Overcast
10:41 AM 46.9 °F - 45.0 °F 93% 30.06 in 2.0 mi NNE 4.6 mph - N/A   Overcast
10:52 AM 46.9 °F - 45.0 °F 93% 30.06 in 2.0 mi NNE 4.6 mph - N/A   Overcast
11:03 AM 48.0 °F - 45.0 °F 89% 30.06 in 1.8 mi NE 4.6 mph - N/A   Overcast
11:15 AM 48.0 °F - 45.0 °F 89% 30.06 in 2.5 mi NE 4.6 mph - N/A   Overcast
11:24 AM 48.9 °F - 45.0 °F 86% 30.06 in 3.0 mi North 4.6 mph - N/A   Overcast
11:49 AM 50.0 °F - 46.4 °F 87% 30.05 in 4.0 mi NNE 5.8 mph - N/A   Overcast
11:52 AM 50.0 °F - 46.0 °F 86% 30.05 in 4.0 mi NNE 4.6 mph - N/A   Overcast
12:52 PM 53.1 °F - 46.9 °F 80% 30.02 in 6.0 mi Calm Calm - N/A   Overcast
1:34 PM 55.0 °F - 48.9 °F 80% 30.00 in 6.0 mi Calm Calm - N/A   Overcast
1:52 PM 57.9 °F - 50.0 °F 75% 29.99 in 7.0 mi Calm Calm - N/A   Overcast
2:17 PM 60.1 °F - 52.0 °F 75% 29.98 in 8.0 mi Variable 5.8 mph - N/A   Overcast
2:52 PM 61.0 °F - 52.0 °F 72% 29.95 in 10.0 mi SSE 12.7 mph - N/A   Overcast
3:52 PM 62.1 °F - 53.1 °F 72% 29.94 in 10.0 mi SSE 8.1 mph - N/A   Overcast
4:33 PM 62.1 °F - 53.1 °F 72% 29.94 in 10.0 mi SE 10.4 mph - N/A   Overcast
4:52 PM 61.0 °F - 52.0 °F 72% 29.93 in 10.0 mi SSE 9.2 mph - N/A   Overcast
5:43 PM 55.9 °F - 48.9 °F 77% 29.93 in 6.0 mi WNW 10.4 mph - N/A   Overcast
5:52 PM 57.0 °F - 51.1 °F 81% 29.94 in 8.0 mi North - - N/A   Overcast
6:52 PM 54.0 °F - 48.9 °F 83% 29.96 in 9.0 mi Calm Calm - N/A   Overcast
7:02 PM 54.0 °F - 48.9 °F 83% 29.96 in 9.0 mi Calm Calm - N/A   Overcast
7:52 PM 57.9 °F - 52.0 °F 81% 29.94 in 10.0 mi SSE 10.4 mph - N/A   Overcast
8:43 PM 51.1 °F - 46.9 °F 86% 29.98 in 7.0 mi WNW 11.5 mph 27.6 mph 0.00 in Rain Light Rain
8:50 PM 50.0 °F - 46.4 °F 87% 29.98 in 5.0 mi West 19.6 mph 27.6 mph 0.00 in Rain Light Rain
8:52 PM 48.9 °F - 46.0 °F 90% 29.99 in 5.0 mi West 19.6 mph 27.6 mph 0.00 in Rain Light Rain
9:52 PM 45.0 °F 40.1 °F 43.0 °F 93% 30.04 in 3.0 mi NW 9.2 mph - 0.03 in Rain Light Rain
10:03 PM 45.0 °F 41.2 °F 43.0 °F 93% 30.03 in 2.5 mi NW 6.9 mph - 0.01 in Rain Light Rain
10:13 PM 45.0 °F 38.5 °F 43.0 °F 93% 30.04 in 3.0 mi NW 13.8 mph - 0.02 in Rain Light Rain
10:52 PM 44.1 °F 40.1 °F 42.1 °F 93% 30.06 in 4.0 mi NW 6.9 mph - 0.04 in Rain Light Rain
11:52 PM 43.0 °F 36.0 °F 41.0 °F 93% 30.08 in 10.0 mi NNW 13.8 mph - 0.00 in   Overcast